User: anonymous   Login
Location: Damada
(14.7329°N, 3.1761°W)
Time: 21:23:26
(UTC+00:00)
Language:

Centaur D-1AR AC-39 - Orbit

View from above orbital plane
View from above orbital plane
View from above satellite
View from above satellite

Ground track
Ground track

The orbit data is extracted from the following two-line orbital elements,

1 10025U 77041B   20158.09736880  .00000014  00000-0  12428-2 0  9998
2 10025  21.6412 305.9680 7191281 204.2147 354.0837  2.22711197348913
Epoch (UTC): 06 June 2020 02:20:12
Eccentricity: 0.7191281
inclination: 21.6412°
perigee height: 579 km
apogee height: 36202 km
right ascension of ascending node: 305.9680°
argument of perigee: 204.2147°
revolutions per day: 2.22711197
mean anomaly at epoch: 354.0837°
orbit number at epoch: 34891

The dashed part of the orbit path shows where the satellite is in the earth's shadow,  

DLR